Other Surface Observations
Issued by NWS Charleston, SC

Home | Current Version | Previous Version | Text Only | Print | Product List | Glossary On
Versions: 1 2 3 4 5 6 7 8 9 10 11 12 13 14 15 16 17 18 19 20 21 22 23 24 25 26 27 28 29 30 31 32 33 34 35 36 37 38 39 40 41 42 43 44 45 46 47 48 49 50
000
SXUS52 KCHS 230710
OSOCHS

MARINE OBSERVATIONS
NATIONAL WEATHER SERVICE CHARLESTON SC
300 AM EDT TUE SEP 23 2014

...DOWNTOWN CHARLESTON AND HARBOR...

CITY           SKY/WX    TMP DP  RH WIND       PRES   REMARKS
WATERFRONT PRK NOT AVBL
FORT JOHNSON   NOT AVBL

...LAKE MOULTRIE...

CITY           SKY/WX    TMP DP  RH WIND       PRES   REMARKS
PINOPOLIS        N/A     70  64  83 NE15      30.02S

...LAKE AND SUPPLEMENTAL COASTAL OBSERVATIONS...

STATION/POSITION TIME  TEMP    WIND        PRES    WAVE   SWELL
                       AIR SEA DIR/SP/G            HT/PER HT/PER/DIR
                 (UTC) (F)     (DEG/KT/KT) (MB)    (FT/S) (FT/S/D)
FORT PULASKI     0700   75      40/ 11/ 14 1016.9F
SAPELO ISLAND    0600   71      50/  9     1017.0S
UPR LAKE MARION  NOT AVBL
WINYAH BAY       0600   67     330/  6     1019.0S
LAKE MURRAY      0600   66      20/  2/  5 1018.6F
ACE BASIN NERRS  0600   66      40/  3     1018.0S


...C-MAN AND BUOY OBSERVATIONS...

STATION/POSITION TIME  TEMP    WIND        PRES    WAVE   SWELL
                       AIR SEA DIR/SP/G            HT/PER HT/PER/DIR
                 (UTC) (F)     (DEG/KT/KT) (MB)    (FT/S) (FT/S/D)
BUOY 41004       0700   78 82   30/ 16/ 17 1016.2F   3/ 7   2/ 7
BUOY 41008       0700   73 82   90/ 17/ 21 1016.7F   5/ 6
FOLLY BEACH CMAN 0600   69     340/ 10/ 14 1018.7F
CAPERS NS BUOY   0600   69      10/ 16/ 19   N/A
FRIPP NS BUOY    NOT AVBL
5E ST. MARYS GA  0700      83                N/A     4/ 4
FRYING PAN BUOY  NOT AVBL
BUOY 41025       0700   73      20/ 19/ 23 1019.5F   4/ 6   2/ 80/ 8
CAPE LOOKOUT NC  0600   74      40/ 16/ 17 1019.6R
BUOY 41002       0641   79 81   90/  4/  6 1017.9F   3/ 7   3/110/ 7
BUOY 41010       0700   78 84   60/  4/  6 1016.5F   3/ 8   3/ 70/ 8
BUOY 41012       NOT AVBL
ST AUGUSTINE FL  0700   77     110/  4/  5 1016.3F


$$



USA.gov is the U.S. government's official web portal to all federal, state and local government web resources and services.